Waukegan, IL

5:43 PM CST on February 09, 2016 (GMT -0600)
Waukegan Regional

Weather History for KUGN - December, 2012

Change the Weather History Date:

Sunday, December 2, 2012

  Actual Average Record
Temperature  
Mean Temperature 52 °F -  
Max Temperature 63 °F 38 °F 63 °F (2012)
Min Temperature 40 °F 24 °F 11 °F (2006)
Degree Days  
Heating Degree Days 13 34  
Month to date heating degree days 33 67  
Since 1 July heating degree days 1472 1452  
Cooling Degree Days 0 0  
Month to date cooling degree days 0 0  
Year to date cooling degree days 983 564  
Growing Degree Days 2 (Base 50)    
Moisture  
Dew Point 48 °F    
Average Humidity 85    
Maximum Humidity 100    
Minimum Humidity 69    
Precipitation  
Precipitation 0.21 in 0.09 in 0.21 in (2012)
Month to date precipitation 0.21 0.18  
Year to date precipitation 23.62 33.77  
Sea Level Pressure  
Sea Level Pressure 29.96 in    
Wind  
Wind Speed 6 mph (East)    
Max Wind Speed 21 mph    
Max Gust Speed 25 mph    
Visibility 5 miles    
Events Rain , Thunderstorm    
T = Trace of Precipitation, MM = Missing Value Source: NWS Daily Summary

Daily Weather History Graph

Daily Weather History Graph

Search for Another Location

Airport or City:

Trip Planner

Search our weather history database for the weather conditions in past years. The results will help you decide how hot, cold, wet, or windy it might be!

Date:

Astronomy

Dec. 02, 2012 Rise Set
Actual Time 7:02 AM CST 4:19 PM CST
Civil Twilight 6:31 AM CST 4:50 PM CST
Nautical Twilight 5:56 AM CST 5:25 PM CST
Astronomical Twilight 5:22 AM CST 5:59 PM CST
Moon 8:08 PM CST (12/2) 9:50 AM CST (12/2)
Length of Visible Light 10h 19m
Length of Day
9h 16m
Waning Gibbous, 85% of the Moon is Illuminated
Dec 2
Waning Gibbous
Dec 6
Last Quarter
Dec 13
New
Dec 19
First Quarter
Dec 28
Full

Hourly Weather History & Observations

Time (CST) Temp. Windchill Dew Point Humidity Pressure Visibility Wind Dir Wind Speed Gust Speed Precip Events Conditions
12:52 AM 55.9 °F - 52.0 °F 87% 29.85 in 4.0 mi SSW 16.1 mph - 0.04 in Rain Heavy Rain
1:07 AM 55.4 °F - 53.6 °F 94% 29.86 in 3.0 mi SSW 15.0 mph - 0.06 in Rain , Thunderstorm Rain
1:12 AM 55.4 °F - 53.6 °F 94% 29.86 in 1.8 mi South 16.1 mph - 0.14 in Rain , Thunderstorm Heavy Rain
1:20 AM 55.4 °F - 53.6 °F 94% 29.85 in 2.5 mi SSW 10.4 mph 21.9 mph 0.17 in Rain Light Rain
1:28 AM 55.4 °F - 53.6 °F 94% 29.85 in 5.0 mi SSW 12.7 mph - 0.17 in Rain Light Rain
1:52 AM 55.9 °F - 52.0 °F 87% 29.85 in 8.0 mi SSW 9.2 mph - 0.17 in   Overcast
2:31 AM 55.4 °F - 51.8 °F 88% 29.86 in 8.0 mi SW 6.9 mph - N/A   Overcast
2:52 AM 55.9 °F - 52.0 °F 87% 29.86 in 9.0 mi SW 9.2 mph - N/A   Overcast
3:52 AM 57.0 °F - 52.0 °F 83% 29.84 in 9.0 mi SW 8.1 mph - N/A   Overcast
4:52 AM 55.9 °F - 52.0 °F 87% 29.85 in 8.0 mi SW 9.2 mph - N/A   Overcast
5:52 AM 55.9 °F - 52.0 °F 87% 29.86 in 8.0 mi SW 4.6 mph - N/A   Overcast
6:52 AM 55.9 °F - 52.0 °F 87% 29.88 in 8.0 mi WSW 4.6 mph - N/A   Overcast
7:21 AM 55.4 °F - 53.6 °F 94% 29.91 in 7.0 mi West 6.9 mph - N/A   Overcast
7:52 AM 55.9 °F - 53.1 °F 90% 29.91 in 5.0 mi West 5.8 mph - N/A   Overcast
8:52 AM 57.0 °F - 52.0 °F 83% 29.93 in 4.0 mi NW 4.6 mph - N/A   Haze
9:52 AM 59.0 °F - 51.1 °F 75% 29.95 in 6.0 mi West 5.8 mph - N/A   Haze
10:22 AM 60.8 °F - 51.8 °F 72% 29.96 in 6.0 mi NW 5.8 mph - N/A   Haze
10:52 AM 60.1 °F - 51.1 °F 72% 29.95 in 6.0 mi Variable 3.5 mph - N/A   Haze
11:52 AM 59.0 °F - 50.0 °F 72% 29.94 in 6.0 mi NW 3.5 mph - N/A   Haze
11:59 AM 60.8 °F - 50.0 °F 68% 29.95 in 6.0 mi NW 3.5 mph - N/A   Haze
12:52 PM 61.0 °F - 50.0 °F 67% 29.95 in 7.0 mi ENE 9.2 mph - N/A   Mostly Cloudy
1:13 PM 55.4 °F - 48.2 °F 77% 29.96 in 5.0 mi ENE 9.2 mph - N/A   Haze
1:52 PM 53.1 °F - 48.0 °F 83% 29.97 in 4.0 mi East 10.4 mph - N/A   Haze
2:52 PM 51.1 °F - 45.0 °F 80% 29.98 in 4.0 mi NE 6.9 mph - N/A   Haze
3:52 PM 48.0 °F - 44.1 °F 86% 30.01 in 3.0 mi NE 6.9 mph - N/A   Clear
4:17 PM 46.4 °F 43.5 °F 44.6 °F 93% 30.00 in 2.5 mi ENE 5.8 mph - N/A   Clear
4:40 PM 46.4 °F 42.9 °F 44.6 °F 93% 30.02 in 3.0 mi NE 6.9 mph - N/A   Clear
4:52 PM 45.0 °F 41.2 °F 44.1 °F 97% 30.03 in 3.0 mi NE 6.9 mph - N/A   Clear
5:52 PM 45.0 °F 42.6 °F 43.0 °F 93% 30.06 in 3.0 mi ENE 4.6 mph - N/A   Clear
6:10 PM 44.6 °F 42.2 °F 42.8 °F 93% 30.06 in 2.5 mi ENE 4.6 mph - N/A   Clear
6:40 PM 44.6 °F 42.2 °F 42.8 °F 93% 30.07 in 2.5 mi ENE 4.6 mph - N/A   Mostly Cloudy
6:52 PM 42.1 °F 39.2 °F 41.0 °F 96% 30.08 in 2.5 mi NE 4.6 mph - N/A   Mostly Cloudy
7:03 PM 42.8 °F 40.1 °F 41.0 °F 93% 30.07 in 2.5 mi NE 4.6 mph - N/A   Scattered Clouds
7:52 PM 42.1 °F 40.2 °F 41.0 °F 96% 30.08 in 2.5 mi NE 3.5 mph - N/A   Mostly Cloudy
8:52 PM 45.0 °F 41.8 °F 43.0 °F 93% 30.07 in 3.0 mi East 5.8 mph - N/A   Overcast
9:48 PM 44.6 °F 41.4 °F 44.6 °F 100% 30.04 in 3.0 mi ESE 5.8 mph - N/A   Overcast
9:52 PM 45.0 °F 40.6 °F 44.1 °F 97% 30.04 in 3.0 mi ESE 8.1 mph - N/A   Overcast
10:52 PM 46.0 °F 44.8 °F 44.1 °F 93% 30.05 in 3.0 mi ESE 3.5 mph - N/A   Overcast
11:52 PM 46.9 °F - 45.0 °F 93% 30.05 in 3.0 mi Calm Calm - N/A   Overcast